Location: Namasale
(1.5000°N, 32.6167°E)
Time: 18:44:37
(UTC+00:00)

Vanguard 1 Rocket - Pass Details

Date: 23 April 2021
Orbit: 652 x 4224 km, 34.3° (Epoch: 09 May)

Event Time Altitude Azimuth Distance (km) Brightness Sun altitude
Rises 01:07:33 0° 228° (SW) 7,724 - -38.5°
Reaches altitude 10° 01:15:21 10° 213° (SSW) 7,130 - -36.7°
Exits shadow 01:18:59 14° 205° (SSW) 6,906 11.5 -35.8°
Maximum altitude 01:33:06 22° 168° (SSE) 6,400 11.6 -32.4°
Drops below altitude 10° 01:49:42 10° 124° (SE) 6,752 12.3 -28.4°
Sets 01:56:34 0° 110° (ESE) 7,256 12.8 -26.7°
